TimeCDT,TemperatureF,Dew PointF,Humidity,Sea Level PressureIn,VisibilityMPH,Wind Direction,Wind SpeedMPH,Gust SpeedMPH,PrecipitationIn,Events,Conditions,WindDirDegrees,DateUTC
12:07 AM,26.6,21.2,80,30.28,10.0,Calm,Calm,-,N/A,,Overcast,0,2013-03-27 05:07:00
12:27 AM,26.6,21.2,80,30.28,10.0,Calm,Calm,-,N/A,,Overcast,0,2013-03-27 05:27:00
12:47 AM,26.6,21.2,80,30.28,10.0,Calm,Calm,-,N/A,,Overcast,0,2013-03-27 05:47:00
1:07 AM,26.6,21.2,80,30.28,10.0,Calm,Calm,-,N/A,,Overcast,0,2013-03-27 06:07:00
1:27 AM,26.6,21.2,80,30.29,10.0,Calm,Calm,-,N/A,,Overcast,0,2013-03-27 06:27:00
1:47 AM,26.6,21.2,80,30.29,10.0,Calm,Calm,-,N/A,,Overcast,0,2013-03-27 06:47:00
2:07 AM,26.6,21.2,80,30.29,10.0,Calm,Calm,-,N/A,,Overcast,0,2013-03-27 07:07:00
2:27 AM,26.6,21.2,80,30.29,10.0,Calm,Calm,-,N/A,,Overcast,0,2013-03-27 07:27:00
2:47 AM,26.6,21.2,80,30.29,10.0,Calm,Calm,-,N/A,,Overcast,0,2013-03-27 07:47:00
3:07 AM,26.6,21.2,80,30.29,10.0,Calm,Calm,-,N/A,,Overcast,0,2013-03-27 08:07:00
3:27 AM,24.8,19.4,80,30.28,10.0,Calm,Calm,-,N/A,,Overcast,0,2013-03-27 08:27:00
3:47 AM,24.8,19.4,80,30.28,10.0,Calm,Calm,-,N/A,,Overcast,0,2013-03-27 08:47:00
4:07 AM,24.8,19.4,80,30.28,10.0,Calm,Calm,-,N/A,,Overcast,0,2013-03-27 09:07:00
4:27 AM,24.8,19.4,80,30.29,10.0,Calm,Calm,-,N/A,,Overcast,0,2013-03-27 09:27:00
4:47 AM,24.8,19.4,80,30.29,10.0,Calm,Calm,-,N/A,,Overcast,0,2013-03-27 09:47:00
5:07 AM,24.8,19.4,80,30.29,10.0,Calm,Calm,-,N/A,,Overcast,0,2013-03-27 10:07:00
5:27 AM,24.8,19.4,80,30.29,10.0,Calm,Calm,-,N/A,,Overcast,0,2013-03-27 10:27:00
5:47 AM,24.8,19.4,80,30.30,10.0,Calm,Calm,-,N/A,,Overcast,0,2013-03-27 10:47:00
6:07 AM,24.8,19.4,80,30.30,10.0,Calm,Calm,-,N/A,,Overcast,0,2013-03-27 11:07:00
6:27 AM,24.8,19.4,80,30.30,10.0,Calm,Calm,-,N/A,,Overcast,0,2013-03-27 11:27:00
6:47 AM,24.8,19.4,80,30.30,10.0,Calm,Calm,-,N/A,,Overcast,0,2013-03-27 11:47:00
7:07 AM,23.0,19.4,86,30.31,10.0,Calm,Calm,-,N/A,,Overcast,0,2013-03-27 12:07:00
7:27 AM,24.8,19.4,80,30.31,10.0,Calm,Calm,-,N/A,,Overcast,0,2013-03-27 12:27:00
7:47 AM,24.8,21.2,86,30.32,10.0,Calm,Calm,-,N/A,,Overcast,0,2013-03-27 12:47:00
8:07 AM,26.6,21.2,80,30.32,10.0,Calm,Calm,-,N/A,,Overcast,0,2013-03-27 13:07:00
8:47 AM,28.4,24.8,86,30.32,10.0,Calm,Calm,-,N/A,,Overcast,0,2013-03-27 13:47:00
9:07 AM,30.2,26.6,86,30.32,10.0,Calm,Calm,-,N/A,,Overcast,0,2013-03-27 14:07:00
9:27 AM,33.8,26.6,75,30.32,10.0,Calm,Calm,-,N/A,,Overcast,0,2013-03-27 14:27:00
9:47 AM,33.8,26.6,75,30.32,10.0,Calm,Calm,-,N/A,,Overcast,0,2013-03-27 14:47:00
10:07 AM,35.6,28.4,75,30.32,10.0,Calm,Calm,-,N/A,,Overcast,0,2013-03-27 15:07:00
10:27 AM,37.4,26.6,65,30.32,10.0,Calm,Calm,-,N/A,,Overcast,0,2013-03-27 15:27:00
10:47 AM,39.2,28.4,65,30.32,10.0,Calm,Calm,-,N/A,,Overcast,0,2013-03-27 15:47:00
11:07 AM,41.0,28.4,61,30.32,10.0,Calm,Calm,-,N/A,,Overcast,0,2013-03-27 16:07:00
11:27 AM,42.8,26.6,53,30.32,10.0,NW,5.8,-,N/A,,Overcast,310,2013-03-27 16:27:00
11:54 AM,-9999,-9999,N/A,30.32,-9999.0,North,5.8,-,N/A,,Unknown,350,2013-03-27 16:54:00
12:14 PM,39.2,15.8,39,30.32,10.0,North,4.6,-,N/A,,Overcast,10,2013-03-27 17:14:00
12:34 PM,41.0,17.6,39,30.32,10.0,Calm,Calm,-,N/A,,Overcast,0,2013-03-27 17:34:00
12:54 PM,42.8,17.6,36,30.32,10.0,Calm,Calm,-,N/A,,Overcast,0,2013-03-27 17:54:00
1:14 PM,42.8,15.8,34,30.32,10.0,North,3.5,-,N/A,,Overcast,360,2013-03-27 18:14:00
1:34 PM,42.8,15.8,34,30.32,10.0,NE,3.5,-,N/A,,Overcast,40,2013-03-27 18:34:00
1:54 PM,44.6,14.0,29,30.32,10.0,North,3.5,-,N/A,,Overcast,10,2013-03-27 18:54:00
2:14 PM,44.6,15.8,31,30.31,10.0,Calm,Calm,-,N/A,,Overcast,0,2013-03-27 19:14:00
2:34 PM,44.6,14.0,29,30.31,10.0,NNE,5.8,-,N/A,,Scattered Clouds,20,2013-03-27 19:34:00
2:54 PM,46.4,15.8,29,30.31,10.0,NE,3.5,-,N/A,,Scattered Clouds,40,2013-03-27 19:54:00
3:14 PM,46.4,15.8,29,30.30,10.0,North,3.5,-,N/A,,Clear,360,2013-03-27 20:14:00
3:34 PM,46.4,15.8,29,30.30,10.0,Calm,Calm,-,N/A,,Scattered Clouds,0,2013-03-27 20:34:00
3:54 PM,46.4,12.2,25,30.30,10.0,NNW,5.8,-,N/A,,Scattered Clouds,340,2013-03-27 20:54:00
4:14 PM,44.6,12.2,27,30.29,10.0,North,3.5,-,N/A,,Clear,10,2013-03-27 21:14:00
4:34 PM,44.6,12.2,27,30.29,10.0,NE,3.5,-,N/A,,Clear,40,2013-03-27 21:34:00
4:54 PM,44.6,12.2,27,30.29,10.0,North,6.9,-,N/A,,Clear,360,2013-03-27 21:54:00
5:14 PM,44.6,10.4,25,30.29,10.0,North,3.5,-,N/A,,Clear,10,2013-03-27 22:14:00
5:34 PM,42.8,10.4,27,30.29,10.0,NNE,3.5,-,N/A,,Clear,30,2013-03-27 22:34:00
5:54 PM,42.8,12.2,29,30.29,10.0,North,3.5,-,N/A,,Clear,350,2013-03-27 22:54:00
6:14 PM,42.8,10.4,27,30.29,10.0,NNW,4.6,-,N/A,,Clear,340,2013-03-27 23:14:00
6:34 PM,41.0,10.4,29,30.29,10.0,North,4.6,-,N/A,,Clear,350,2013-03-27 23:34:00
6:54 PM,39.2,10.4,31,30.29,10.0,NNW,3.5,-,N/A,,Clear,340,2013-03-27 23:54:00
7:14 PM,35.6,8.6,33,30.29,10.0,Calm,Calm,-,N/A,,Clear,0,2013-03-28 00:14:00
7:34 PM,30.2,6.8,37,30.30,10.0,Calm,Calm,-,N/A,,Clear,0,2013-03-28 00:34:00
7:54 PM,26.6,8.6,47,30.30,10.0,Calm,Calm,-,N/A,,Clear,0,2013-03-28 00:54:00
8:14 PM,24.8,10.4,54,30.30,10.0,Calm,Calm,-,N/A,,Clear,0,2013-03-28 01:14:00
8:34 PM,23.0,12.2,63,30.30,10.0,Calm,Calm,-,N/A,,Clear,0,2013-03-28 01:34:00
8:54 PM,23.0,12.2,63,30.30,10.0,Calm,Calm,-,N/A,,Clear,0,2013-03-28 01:54:00
9:14 PM,21.2,12.2,68,30.30,10.0,Calm,Calm,-,N/A,,Clear,0,2013-03-28 02:14:00
9:34 PM,21.2,12.2,68,30.31,10.0,Calm,Calm,-,N/A,,Clear,0,2013-03-28 02:34:00
9:54 PM,19.4,12.2,74,30.31,10.0,Calm,Calm,-,N/A,,Clear,0,2013-03-28 02:54:00
10:14 PM,19.4,10.4,68,30.31,10.0,Calm,Calm,-,N/A,,Clear,0,2013-03-28 03:14:00
10:33 PM,17.6,12.2,79,30.31,10.0,Calm,Calm,-,N/A,,Clear,0,2013-03-28 03:33:00
10:54 PM,17.6,12.2,79,30.31,10.0,Calm,Calm,-,N/A,,Clear,0,2013-03-28 03:54:00
11:14 PM,15.8,10.4,79,30.31,10.0,Calm,Calm,-,N/A,,Clear,0,2013-03-28 04:14:00
11:34 PM,15.8,10.4,79,30.31,10.0,Calm,Calm,-,N/A,,Clear,0,2013-03-28 04:34:00
11:53 PM,15.8,10.4,79,30.31,10.0,Calm,Calm,-,N/A,,Clear,0,2013-03-28 04:53:00